View from above orbital plane
|
View from above satellite
|
Ground track
|
The orbit data is extracted from the following two-line orbital elements,
1 43021U 98067NJ 21023.41263844 .00037375 00000-0 17929-3 0 9996
2 43021 51.6297 228.5537 0003103 173.9535 186.1506 15.82323705181535
Epoch (UTC): | 23 January 2021 09:54:11 |
Eccentricity: | 0.0003103 |
inclination: | 51.6297° |
perigee height: | 322 km |
apogee height: | 326 km |
right ascension of ascending node: | 228.5537° |
argument of perigee: | 173.9535° |
revolutions per day: | 15.82323705 |
mean anomaly at epoch: | 186.1506° |
orbit number at epoch: | 18153 |
The dashed part of the orbit path shows where the satellite is in the earth's shadow,
|
|